Location: Clermont
(50.2608°N, 4.3172°E)
Time: 15:55:04
(UTC+00:00)

Cosmos 1605 Rocket - Pass Details

Date: 13 August 2020
Orbit: 945 x 1005 km, 82.9° (Epoch: 18 September)

Event Time Altitude Azimuth Distance (km) Brightness Sun altitude
Exits shadow 20:39:15 - 185° (S) 3,516 6.6 -13.4°
Reaches altitude 10° 20:41:27 10° 185° (S) 2,673 5.9 -13.7°
Maximum altitude 20:47:34 85° 98° (E) 958 3.9 -14.4°
Drops below altitude 10° 20:53:41 10° 11° (N) 2,679 6.8 -15.0°
Sets 20:56:11 0° 11° (N) 3,629 7.5 -15.3°
